Weather in Suffolk

United States     36°43′39″N   76°34′58″W
temp.,
°C
wind,
m/s
gust,
m/s
humid.,
%
clouds,
%
prec.,
mm/h
press.,
hPa
HPBL,
m
23 may, mon
mon2323:00+22sw4118029 0.1 1019440
02:00+20w369138 0.1 1019156
05:00+20nw2797100 0.0 1020231
08:00+22nne578499 0.0 1021604
11:00+24nne556332 0.0 1021848
14:00+24ne555499 0.0 10211028
17:00+23ne445795 0.0 1020904
20:00+19ene4867100 0.0 1022412
24 may, tue
tue2423:00+16e2587100 0.6 1023218
02:00+16ese3890100 0.8 1020312
05:00+16ene3795100 2.2 1020307
08:00+16e3797100 7.1 1021455
11:00+17e3897100 5.4 1022466
14:00+17e3897100 7.4 1021478
17:00+17e4998100 1.8 1020470
20:00+18e41099100 6.1 1020471
25 may, wed
wed2523:00+18e51399100 28.0 1019705
02:00+18ese41199100 37.0 1020694
05:00+19ene2699100 0.3 1020442
08:00+19nne4699100 1.1 1021363
11:00+19ne4698100 0.4 1021406
14:00+19ne4696100 0.5 1022433
17:00+19ne3596100 0.1 1021401
20:00+19nne2498100 0.1 1021227
26 may, thu
thu2623:00+18nw1299100 0.1 1022141
02:00+18w2399100 0.1 1022180
05:00+17w2497100 0.0 1022271
08:00+18w239159 0.0 1023312
11:00+23wnw346917 0.0 1023786
14:00+27w245827 0.0 10211217
17:00+26ssw1371100 0.1 1020329
20:00+22se3689100 0.3 1020187
27 may, fri
fri2723:00+21s31195100 0.0 1019350
02:00+20s31195100 0.0 1018358
05:00+19ssw3119821 0.0 1018362
08:00+23s4118787 0.0 1018589
11:00+27ssw586099 0.0 10171249
14:00+29ssw475899 0.2 10151469
17:00+24s51183100 4.1 1013509
20:00+22s41192100 6.3 1014429